Find Yaogan 39 02 zu 01 xing

NORAD ID: 57886 Int'l Des: 2023-145 Owner: ZZB Country: CN Constellation: yaogan operational
LEOCIRCULAR

当前视图

正在加载3D地球...

About Yaogan 39 02 zu 01 xing

Yaogan 39 02 zu 01 xing (NORAD 57886) is a yaogan constellation satellite launched Sep 17, 2023 by ZZB of CN. It operates in LEO, CIRCULAR orbit with a mass of 300.00 kg.

关于 Yaogan 39 02 zu 01 xing

正在加载描述...

即将过境

Passes for default location (London). Set your location on the main map for personalized predictions.

高度历史

Loading altitude history...

两行轨道根数

1 57886U 23145A 26194.61712262 .00005351 00000-0 22269-3 0 9996
2 57886 35.0043 34.2513 0002493 214.8805 145.1747 15.23121603157203
Epoch: Jul 13, 2026 • Age: 12 hours

当前状态

高度 494.3 km
远地点 / 近地点 N/A
速度 7.62 km/s
星下点 19.06°N, 147.03°W
发射日期 Sep 17, 2023
运行时间 2.8 years
类型 military

技术详情

分类 Payload
质量 300.00 kg
干质量 300.00 kg
总质量 300.00 kg
长度 2.50 m
直径 2.50 m
跨度 5.00 m
形状 Box + 2 Pan
制造商 DFHZ
阶段状态 In Orbit
所有者/国家 ZZB/CN

Most Searched